Ardmore Downtown, OK

9:35 AM CDT on March 29, 2017 (GMT -0500)
Ardmore Downtown

Weather History for K1F0 - March, 2013

Change the Weather History Date:

Saturday, March 9, 2013

  Actual Average (KADM) Record (KADM)
Temperature  
Mean Temperature 58 °F -  
Max Temperature 64 °F 58 °F 80 °F (2009)
Min Temperature 53 °F 40 °F 24 °F (1998)
Degree Days  
Heating Degree Days 6    
Growing Degree Days 8 (Base 50)    
Moisture  
Dew Point 55 °F    
Average Humidity 91    
Maximum Humidity 100    
Minimum Humidity 77    
Precipitation  
Precipitation 0.54 in - - ()
Sea Level Pressure  
Sea Level Pressure 29.79 in    
Wind  
Wind Speed 9 mph (South)    
Max Wind Speed 15 mph    
Max Gust Speed 20 mph    
Visibility 7 miles    
Events Rain , Thunderstorm    
Averages and records for this station are not official NWS values.
T = Trace of Precipitation, MM = Missing Value Source: NWS Daily Summary

Daily Weather History Graph

Daily Weather History Graph

Search for Another Location

Airport or City:

Trip Planner

Search our weather history database for the weather conditions in past years. The results will help you decide how hot, cold, wet, or windy it might be!

Date:

Astronomy

Mar. 09, 2013 Rise Set
Actual Time 6:46 AM CST 6:31 PM CST
Civil Twilight 6:21 AM CST 6:56 PM CST
Nautical Twilight 5:52 AM CST 7:25 PM CST
Astronomical Twilight 5:23 AM CST 7:54 PM CST
Moon 5:06 AM CST (3/9) 4:38 PM CST (3/9)
Length of Visible Light 12h 35m
Length of Day
11h 45m
Waning Crescent, 5% of the Moon is Illuminated
Mar 9
Waning Crescent
Mar 11
New
Mar 19
First Quarter
Mar 27
Full
Apr 2
Last Quarter

Hourly Weather History & Observations

Time (CST) Temp. Dew Point Humidity Pressure Visibility Wind Dir Wind Speed Gust Speed Precip Events Conditions
12:15 AM 60.8 °F 53.6 °F 77% 29.95 in 10.0 mi South 15.0 mph 19.6 mph N/A   Overcast
12:35 AM 60.8 °F 53.6 °F 77% 29.94 in 10.0 mi South 11.5 mph - N/A   Overcast
12:55 AM 60.8 °F 53.6 °F 77% 29.94 in 10.0 mi SSE 10.4 mph 19.6 mph N/A   Overcast
1:15 AM 59.0 °F 53.6 °F 82% 29.95 in 10.0 mi South 8.1 mph - N/A   Overcast
1:55 AM 59.0 °F 53.6 °F 82% 29.93 in 10.0 mi South 8.1 mph - N/A   Overcast
2:15 AM 59.0 °F 53.6 °F 82% 29.92 in 10.0 mi South 6.9 mph - N/A   Overcast
2:35 AM 59.0 °F 53.6 °F 82% 29.91 in 10.0 mi South 9.2 mph - N/A   Overcast
2:55 AM 59.0 °F 51.8 °F 77% 29.90 in 10.0 mi South 9.2 mph - N/A   Overcast
3:15 AM 59.0 °F 51.8 °F 77% 29.90 in 10.0 mi South 8.1 mph - N/A   Overcast
3:35 AM 59.0 °F 51.8 °F 77% 29.89 in 10.0 mi South 8.1 mph - N/A   Overcast
3:55 AM 57.2 °F 51.8 °F 82% 29.89 in 10.0 mi South 8.1 mph - N/A   Overcast
4:15 AM 57.2 °F 51.8 °F 82% 29.89 in 10.0 mi SSE 9.2 mph - N/A   Overcast
4:35 AM 59.0 °F 51.8 °F 77% 29.88 in 10.0 mi SSE 11.5 mph 16.1 mph N/A   Overcast
4:55 AM 59.0 °F 51.8 °F 77% 29.86 in 10.0 mi SSE 11.5 mph 16.1 mph N/A   Overcast
5:15 AM 59.0 °F 53.6 °F 82% 29.87 in 10.0 mi South 10.4 mph 18.4 mph N/A   Overcast
5:35 AM 59.0 °F 53.6 °F 82% 29.87 in 10.0 mi South 10.4 mph - N/A   Overcast
5:55 AM 59.0 °F 53.6 °F 82% 29.87 in 10.0 mi South 10.4 mph - N/A   Overcast
6:15 AM 59.0 °F 53.6 °F 82% 29.87 in 10.0 mi South 10.4 mph - N/A   Overcast
6:35 AM 59.0 °F 53.6 °F 82% 29.87 in 4.0 mi South 9.2 mph - N/A Rain Light Rain
6:55 AM 57.2 °F 55.4 °F 94% 29.88 in 2.5 mi SSE 8.1 mph - N/A   Drizzle
7:15 AM 55.4 °F 55.4 °F 100% 29.88 in 1.2 mi SSE 5.8 mph - N/A   Drizzle
7:35 AM 55.4 °F 55.4 °F 100% 29.88 in 1.2 mi SSE 6.9 mph - N/A   Drizzle
7:55 AM 55.4 °F 55.4 °F 100% 29.88 in 1.2 mi SSE 6.9 mph - N/A   Drizzle
8:15 AM 55.4 °F 55.4 °F 100% 29.87 in 1.2 mi SSE 5.8 mph - N/A   Light Drizzle
8:35 AM 55.4 °F 55.4 °F 100% 29.88 in 1.5 mi SSE 5.8 mph - N/A   Drizzle
8:55 AM 55.4 °F 55.4 °F 100% 29.87 in 1.5 mi SSE 8.1 mph - N/A   Drizzle
9:15 AM 57.2 °F 55.4 °F 94% 29.86 in 1.5 mi SSE 9.2 mph - N/A   Drizzle
9:35 AM 57.2 °F 55.4 °F 94% 29.86 in 1.8 mi SSE 10.4 mph - N/A   Drizzle
9:55 AM 57.2 °F 55.4 °F 94% 29.85 in 2.0 mi SSE 6.9 mph - N/A   Light Drizzle
10:15 AM 59.0 °F 55.4 °F 88% 29.84 in 2.0 mi South 9.2 mph - N/A   Overcast
10:35 AM 59.0 °F 55.4 °F 88% 29.84 in 3.0 mi South 8.1 mph 16.1 mph N/A   Drizzle
10:55 AM 59.0 °F 57.2 °F 94% 29.83 in 2.5 mi SSE 11.5 mph 16.1 mph N/A   Light Drizzle
11:15 AM 59.0 °F 57.2 °F 94% 29.82 in 2.5 mi South 12.7 mph 17.3 mph N/A   Overcast
11:35 AM 59.0 °F 57.2 °F 94% 29.81 in 3.0 mi South 11.5 mph 18.4 mph N/A   Overcast
11:55 AM 59.0 °F 57.2 °F 94% 29.80 in 3.0 mi South 9.2 mph 17.3 mph N/A   Overcast
12:15 PM 59.0 °F 59.0 °F 100% 29.79 in 3.0 mi South 11.5 mph 16.1 mph N/A   Overcast
12:35 PM 60.8 °F 59.0 °F 94% 29.78 in 4.0 mi South 11.5 mph - N/A   Overcast
12:55 PM 60.8 °F 59.0 °F 94% 29.77 in 5.0 mi South 10.4 mph 17.3 mph N/A   Overcast
1:15 PM 60.8 °F 59.0 °F 94% 29.75 in 5.0 mi South 11.5 mph 16.1 mph N/A   Overcast
1:35 PM 60.8 °F 59.0 °F 94% 29.73 in 5.0 mi South 11.5 mph 16.1 mph N/A   Overcast
1:55 PM 60.8 °F 59.0 °F 94% 29.71 in 7.0 mi South 12.7 mph 19.6 mph N/A   Overcast
2:15 PM 62.6 °F 60.8 °F 94% 29.69 in 7.0 mi South 13.8 mph 19.6 mph N/A   Overcast
2:35 PM 62.6 °F 60.8 °F 94% 29.69 in 10.0 mi South 13.8 mph 19.6 mph N/A   Overcast
2:55 PM 62.6 °F 60.8 °F 94% 29.69 in 10.0 mi South 11.5 mph 19.6 mph N/A   Overcast
3:15 PM 62.6 °F 60.8 °F 94% 29.67 in 10.0 mi SSE 10.4 mph 18.4 mph N/A   Overcast
3:35 PM 64.4 °F 60.8 °F 88% 29.66 in 10.0 mi South 11.5 mph - N/A Thunderstorm Overcast
3:55 PM 64.4 °F 60.8 °F 88% 29.65 in 10.0 mi South 12.7 mph 18.4 mph N/A   Overcast
4:15 PM 64.4 °F 60.8 °F 88% 29.65 in 10.0 mi South 13.8 mph 19.6 mph N/A Thunderstorm Overcast
4:35 PM 64.4 °F 60.8 °F 88% 29.67 in 10.0 mi South 12.7 mph 19.6 mph N/A Rain , Thunderstorm Light Thunderstorms and Rain
4:55 PM 59.0 °F 55.4 °F 88% 29.67 in 2.5 mi WSW 10.4 mph - N/A Rain , Thunderstorm Heavy Thunderstorms and Rain
5:15 PM 59.0 °F 57.2 °F 94% 29.66 in 2.0 mi West 4.6 mph - 0.30 in Rain , Thunderstorm Thunderstorms and Rain
5:35 PM 59.0 °F 55.4 °F 88% 29.65 in 4.0 mi Calm Calm - 0.43 in Rain , Thunderstorm Light Thunderstorms and Rain
5:55 PM 59.0 °F 55.4 °F 88% 29.69 in 7.0 mi South 6.9 mph 16.1 mph 0.48 in Rain , Thunderstorm Heavy Thunderstorms and Rain
6:15 PM 57.2 °F 55.4 °F 94% 29.67 in 10.0 mi Calm Calm - 0.05 in Rain , Thunderstorm Light Thunderstorms and Rain
6:35 PM 57.2 °F 55.4 °F 94% 29.68 in 10.0 mi South 3.5 mph - 0.06 in Rain , Thunderstorm Light Thunderstorms and Rain
6:55 PM 57.2 °F 55.4 °F 94% 29.69 in 10.0 mi SSW 3.5 mph - 0.06 in   Overcast
7:15 PM 55.4 °F 55.4 °F 100% 29.69 in 10.0 mi Calm Calm - N/A   Overcast
7:35 PM 55.4 °F 55.4 °F 100% 29.71 in 7.0 mi South 3.5 mph - N/A   Overcast
7:55 PM 55.4 °F 55.4 °F 100% 29.70 in 10.0 mi South 3.5 mph - N/A   Overcast
8:15 PM 55.4 °F 53.6 °F 94% 29.71 in 10.0 mi SSE 4.6 mph - N/A   Overcast
8:35 PM 55.4 °F 53.6 °F 94% 29.73 in 10.0 mi South 3.5 mph - N/A   Overcast
8:55 PM 55.4 °F 53.6 °F 94% 29.73 in 10.0 mi Calm Calm - N/A   Overcast
9:15 PM 55.4 °F 53.6 °F 94% 29.73 in 10.0 mi Calm Calm - N/A   Mostly Cloudy
9:35 PM 53.6 °F 53.6 °F 100% 29.72 in 7.0 mi Calm Calm - N/A   Scattered Clouds
9:55 PM 53.6 °F 53.6 °F 100% 29.72 in 3.0 mi Calm Calm - N/A   Mostly Cloudy
10:15 PM 53.6 °F 53.6 °F 100% 29.73 in 7.0 mi SSE 3.5 mph - N/A   Overcast
10:35 PM 55.4 °F 53.6 °F 94% 29.73 in 10.0 mi South 4.6 mph - N/A   Overcast
10:55 PM 53.6 °F 53.6 °F 100% 29.71 in 10.0 mi South 3.5 mph - N/A Thunderstorm Overcast
11:15 PM 53.6 °F 53.6 °F 100% 29.70 in 10.0 mi Calm Calm - N/A   Overcast
11:35 PM 53.6 °F 53.6 °F 100% 29.74 in 10.0 mi Calm Calm - N/A   Overcast
11:55 PM 53.6 °F 53.6 °F 100% 29.71 in 10.0 mi Calm Calm - N/A   Mostly Cloudy